Manistique, MI

7:53 AM EDT on July 28, 2017 (GMT -0400)
Schoolcraft County

Weather History for KISQ - January, 2013

Change the Weather History Date:

Saturday, January 5, 2013

  Actual Average Record
Temperature  
Mean Temperature 27 °F -  
Max Temperature 35 °F 25 °F 44 °F (2007)
Min Temperature 19 °F 7 °F -20 °F (1972)
Degree Days  
Heating Degree Days 38    
Moisture  
Dew Point 23 °F    
Average Humidity 77    
Maximum Humidity 87    
Minimum Humidity 64    
Precipitation  
Precipitation 0.00 in - - ()
Sea Level Pressure  
Sea Level Pressure 30.00 in    
Wind  
Wind Speed 5 mph (SW)    
Max Wind Speed 14 mph    
Max Gust Speed 20 mph    
Visibility 10 miles    
Events      
Averages and records for this station are not official NWS values.
T = Trace of Precipitation, MM = Missing Value Source: NWS Daily Summary

Daily Weather History Graph

Daily Weather History Graph

Search for Another Location

Airport or City:

Trip Planner

Search our weather history database for the weather conditions in past years. The results will help you decide how hot, cold, wet, or windy it might be!

Date:

Astronomy

Jan. 05, 2013 Rise Set
Actual Time 8:26 AM EST 5:14 PM EST
Civil Twilight 7:52 AM EST 5:48 PM EST
Nautical Twilight 7:14 AM EST 6:26 PM EST
Astronomical Twilight 6:38 AM EST 7:02 PM EST
Moon 1:20 AM EST (1/5) 12:13 PM EST (1/5)
Length of Visible Light 9h 56m
Length of Day
8h 48m
Last Quarter, 44% of the Moon is Illuminated
Jan 5
Last Quarter
Jan 11
New
Jan 18
First Quarter
Jan 26
Full
Feb 3
Last Quarter

Hourly Weather History & Observations

Time (EST) Temp. Windchill Dew Point Humidity Pressure Visibility Wind Dir Wind Speed Gust Speed Precip Events Conditions
12:14 AM 30.2 °F 22.6 °F 19.4 °F 64% 30.09 in 10.0 mi NW 8.1 mph - N/A   Overcast
12:35 AM 30.2 °F 23.4 °F 19.4 °F 64% 30.08 in 10.0 mi NW 6.9 mph - N/A   Overcast
12:55 AM 28.4 °F 23.3 °F 19.4 °F 69% 30.08 in 10.0 mi WNW 4.6 mph - N/A   Overcast
1:14 AM 28.4 °F 23.3 °F 19.4 °F 69% 30.07 in 10.0 mi NW 4.6 mph - N/A   Mostly Cloudy
1:35 AM 26.6 °F 20.0 °F 17.6 °F 69% 30.08 in 10.0 mi West 5.8 mph - N/A   Scattered Clouds
1:54 AM 26.6 °F 22.6 °F 19.4 °F 74% 30.09 in 10.0 mi WSW 3.5 mph - N/A   Scattered Clouds
2:14 AM 26.6 °F 22.6 °F 17.6 °F 69% 30.10 in 10.0 mi West 3.5 mph - N/A   Mostly Cloudy
2:35 AM 26.6 °F 22.6 °F 19.4 °F 74% 30.11 in 10.0 mi West 3.5 mph - N/A   Overcast
2:54 AM 26.6 °F - 19.4 °F 74% 30.12 in 10.0 mi Calm Calm - N/A   Overcast
3:15 AM 26.6 °F 22.6 °F 19.4 °F 74% 30.13 in 10.0 mi WSW 3.5 mph - N/A   Overcast
3:35 AM 26.6 °F - 19.4 °F 74% 30.13 in 10.0 mi Calm Calm - N/A   Overcast
3:54 AM 26.6 °F 22.6 °F 17.6 °F 69% 30.13 in 10.0 mi WSW 3.5 mph - N/A   Mostly Cloudy
4:15 AM 24.8 °F 19.1 °F 17.6 °F 74% 30.13 in 10.0 mi West 4.6 mph - N/A   Scattered Clouds
4:34 AM 24.8 °F 20.5 °F 17.6 °F 74% 30.13 in 10.0 mi WSW 3.5 mph - N/A   Scattered Clouds
4:54 AM 23.0 °F 17.0 °F 17.6 °F 80% 30.13 in 10.0 mi West 4.6 mph - N/A   Mostly Cloudy
5:15 AM 24.8 °F 20.5 °F 17.6 °F 74% 30.14 in 10.0 mi West 3.5 mph - N/A   Overcast
5:34 AM 24.8 °F 20.5 °F 17.6 °F 74% 30.15 in 10.0 mi West 3.5 mph - N/A   Overcast
5:55 AM 24.8 °F 19.1 °F 17.6 °F 74% 30.14 in 10.0 mi WSW 4.6 mph - N/A   Overcast
6:15 AM 23.0 °F - 17.6 °F 80% 30.14 in 10.0 mi Calm Calm - N/A   Overcast
6:34 AM 24.8 °F - 17.6 °F 74% 30.14 in 10.0 mi Calm Calm - N/A   Overcast
6:55 AM 19.4 °F - 15.8 °F 86% 30.14 in 10.0 mi Calm Calm - N/A   Overcast
7:14 AM 24.8 °F 20.5 °F 17.6 °F 74% 30.15 in 10.0 mi West 3.5 mph - N/A   Overcast
7:34 AM 23.0 °F 18.4 °F 17.6 °F 80% 30.15 in 10.0 mi West 3.5 mph - N/A   Overcast
7:54 AM 23.0 °F - 17.6 °F 80% 30.15 in 10.0 mi Calm Calm - N/A   Overcast
8:35 AM 19.4 °F - 15.8 °F 86% 30.13 in 10.0 mi Calm Calm - N/A   Overcast
8:54 AM 21.2 °F - 15.8 °F 80% 30.13 in 10.0 mi Calm Calm - N/A   Overcast
9:15 AM 19.4 °F - 15.8 °F 86% 30.12 in 10.0 mi Calm Calm - N/A   Mostly Cloudy
9:35 AM 19.4 °F - 15.8 °F 86% 30.11 in 10.0 mi Calm Calm - N/A   Scattered Clouds
9:54 AM 21.2 °F 16.4 °F 17.6 °F 86% 30.11 in 10.0 mi ENE 3.5 mph - N/A   Clear
10:15 AM 24.8 °F - 17.6 °F 74% 30.10 in 10.0 mi Calm Calm - N/A   Clear
10:54 AM 30.2 °F 22.6 °F 21.2 °F 69% 30.10 in 10.0 mi SSE 8.1 mph - N/A   Mostly Cloudy
11:14 AM 33.8 °F 25.8 °F 24.8 °F 70% 30.09 in 10.0 mi South 10.4 mph - N/A   Overcast
12:14 PM 33.8 °F 25.8 °F 26.6 °F 75% 30.05 in 10.0 mi South 10.4 mph - N/A   Overcast
12:55 PM 35.6 °F 28.0 °F 26.6 °F 70% 30.02 in 10.0 mi SSE 10.4 mph - N/A   Overcast
1:14 PM 33.8 °F 25.3 °F 26.6 °F 75% 30.00 in 10.0 mi SSE 11.5 mph - N/A   Overcast
1:35 PM 33.8 °F 25.8 °F 26.6 °F 75% 30.00 in 10.0 mi SSE 10.4 mph - N/A   Overcast
1:54 PM 33.8 °F 25.8 °F 26.6 °F 75% 29.99 in 10.0 mi South 10.4 mph - N/A   Overcast
2:14 PM 33.8 °F 27.0 °F 26.6 °F 75% 29.98 in 10.0 mi South 8.1 mph - N/A   Overcast
2:35 PM 33.8 °F 27.0 °F 26.6 °F 75% 29.97 in 10.0 mi South 8.1 mph - N/A   Overcast
2:54 PM 33.8 °F 27.7 °F 26.6 °F 75% 29.96 in 10.0 mi South 6.9 mph - N/A   Overcast
3:15 PM 33.8 °F 27.7 °F 28.4 °F 81% 29.95 in 10.0 mi South 6.9 mph - N/A   Overcast
3:35 PM 35.6 °F 29.2 °F 30.2 °F 81% 29.93 in 10.0 mi SSE 8.1 mph - N/A   Overcast
3:54 PM 35.6 °F 29.9 °F 30.2 °F 81% 29.92 in 10.0 mi SSE 6.9 mph - N/A   Overcast
4:15 PM 35.6 °F 29.2 °F 30.2 °F 81% 29.91 in 10.0 mi SSE 8.1 mph - N/A   Overcast
4:34 PM 35.6 °F 29.2 °F 30.2 °F 81% 29.91 in 10.0 mi SSW 8.1 mph - N/A   Overcast
4:54 PM 33.8 °F 27.7 °F 30.2 °F 87% 29.90 in 10.0 mi SSW 6.9 mph - N/A   Overcast
5:15 PM 33.8 °F 29.6 °F 28.4 °F 81% 29.89 in 10.0 mi SSW 4.6 mph - N/A   Scattered Clouds
5:55 PM 33.8 °F 29.6 °F 30.2 °F 87% 29.87 in 10.0 mi South 4.6 mph - N/A   Mostly Cloudy
6:15 PM 33.8 °F 25.3 °F 30.2 °F 87% 29.86 in 10.0 mi SSW 11.5 mph - N/A   Mostly Cloudy
6:34 PM 35.6 °F 27.5 °F 28.4 °F 75% 29.86 in 10.0 mi South 11.5 mph - N/A   Mostly Cloudy
6:55 PM 35.6 °F 27.1 °F 28.4 °F 75% 29.85 in 10.0 mi South 12.7 mph 17.3 mph N/A   Mostly Cloudy
7:14 PM 35.6 °F 26.6 °F 28.4 °F 75% 29.84 in 10.0 mi South 13.8 mph - N/A   Overcast
7:34 PM 35.6 °F 26.6 °F 28.4 °F 75% 29.83 in 10.0 mi South 13.8 mph 19.6 mph N/A   Mostly Cloudy
7:54 PM 35.6 °F 27.5 °F 28.4 °F 75% 29.83 in 10.0 mi SSW 11.5 mph 18.4 mph N/A   Mostly Cloudy
8:14 PM 35.6 °F 28.0 °F 28.4 °F 75% 29.83 in 10.0 mi SSW 10.4 mph - N/A   Overcast
8:34 PM 33.8 °F 26.4 °F 28.4 °F 81% 29.84 in 10.0 mi WSW 9.2 mph - N/A   Overcast
8:54 PM 32.0 °F 26.4 °F 24.8 °F 75% 29.83 in 10.0 mi SW 5.8 mph - N/A   Mostly Cloudy
9:15 PM 30.2 °F 25.4 °F 24.8 °F 80% 29.83 in 10.0 mi WSW 4.6 mph - N/A   Clear
9:34 PM 30.2 °F - 24.8 °F 80% 29.83 in 10.0 mi Calm Calm - N/A   Clear
9:55 PM 30.2 °F 23.4 °F 24.8 °F 80% 29.82 in 10.0 mi WSW 6.9 mph - N/A   Clear
10:15 PM 28.4 °F 22.2 °F 24.8 °F 86% 29.82 in 10.0 mi SW 5.8 mph - N/A   Clear
10:34 PM 28.4 °F 20.4 °F 23.0 °F 80% 29.82 in 10.0 mi WSW 8.1 mph - N/A   Clear
10:55 PM 28.4 °F - 23.0 °F 80% 29.82 in 10.0 mi Calm Calm - N/A   Clear
11:14 PM 28.4 °F 24.6 °F 21.2 °F 74% 29.82 in 10.0 mi WSW 3.5 mph - N/A   Clear
11:35 PM 26.6 °F - 21.2 °F 80% 29.82 in 10.0 mi Calm Calm - N/A   Clear
11:54 PM 26.6 °F 21.2 °F 19.4 °F 74% 29.81 in 10.0 mi WSW 4.6 mph - N/A   Clear